Regional Weather Roundup
Issued by NWS

Home | Current Version | Previous Version | Text Only | Print | Product List | Glossary On
Versions: 1 2 3 4 5 6 7 8 9 10 11 12 13 14 15 16 17 18 19 20 21 22 23 24 25 26 27 28 29 30 31 32 33 34 35 36 37 38 39 40 41 42 43 44 45 46 47 48 49 50
000
ASUS43 KFSD 242210
RWRSD

WEATHER ROUNDUP FOR SOUTH DAKOTA
NATIONAL WEATHER SERVICE SIOUX FALLS SD
500 PM CDT WED AUG 24 2016

NOTE: "FAIR" INDICATES FEW OR NO CLOUDS BELOW 12,000 FEET WITH NO
SIGNIFICANT WEATHER AND/OR OBSTRUCTIONS TO VISIBILITY.


SDZ001>005-009-010-012>017-242300-
NORTHWEST AND NORTH CENTRAL SOUTH DAKOTA

CITY           SKY/WX    TMP DP  RH WIND       PRES   REMARKS
BUFFALO          N/A     73  44  35 NW29G38   30.06S
FAITH            N/A     76  45  33 NW23G37   30.09F
MOBRIDGE       MOSUNNY   81  45  28 NW18G25   30.00F
$$

SDZ012>016-024>037-041>051-057-063-072>074-242300-
SOUTHWEST AND SOUTH CENTRAL SOUTH DAKOTA

CITY           SKY/WX    TMP DP  RH WIND       PRES   REMARKS
RAPID CTY ARPT SUNNY     76  46  34 N12       30.13F
PIERRE         CLOUDY    78  47  33 NW10      30.05F
CUSTER         SUNNY     69  34  27 VRB6      30.21F
ELLSWORTH AFB  MOSUNNY   72  45  37 NW10      30.13F
PHILIP         PTSUNNY   77  47  34 NW10      30.09F
PINE RIDGE     PTSUNNY   74  41  30 CALM      30.14F
WINNER         FAIR      73  51  46 N3        30.10S
$$

SDZ004>011-016>023-039-040-242300-
NORTHEAST SOUTH DAKOTA

CITY           SKY/WX    TMP DP  RH WIND       PRES   REMARKS
ABERDEEN       MOSUNNY   78  50  37 W16       30.01S
WATERTOWN      CLOUDY    74  54  49 NW13G21   30.03S
BROOKINGS      CLOUDY    71  57  61 NW9       30.04S
SISSETON         N/A     74  53  48 NW17      29.97S
$$

SDZ017-020-022-023-036>040-048>070-242300-
SOUTHEAST SOUTH DAKOTA

CITY           SKY/WX    TMP DP  RH WIND       PRES   REMARKS
SIOUX FALLS    CLOUDY    73  60  63 NW7       30.05R
HURON          CLOUDY    75  52  44 NW10      30.04S
CHAMBERLAIN    CLOUDY    74  54  48 N7        30.07S
MITCHELL       CLOUDY    73  59  61 NW7       30.05F
YANKTON        CLOUDY    73  55  53 CALM      30.06R
$$

ABBREVIATIONS USED IN REMARKS
   TC - TEMPERATURE IN CELSIUS
  WCI - WIND CHILL INDEX
   HX - HEAT INDEX
  VSB - VISIBILITY




USA.gov is the U.S. government's official web portal to all federal, state and local government web resources and services.